Location: Skalnate Pleso
(49.1889°N, 20.2450°E)
Time: 07:21:01
(UTC+01:00)

CZ-4B DEB - Pass Details

Date: 19 November 2019
Orbit: 840 x 862 km, 99.1° (Epoch: 06 December)

Event Time Altitude Azimuth Distance (km) Brightness Sun altitude
Rises 04:56:31 0° 16° (NNE) 3,410 7.5 -19.0°
Reaches altitude 10° 04:58:54 10° 18° (NNE) 2,473 6.7 -18.6°
Maximum altitude 05:04:23 74° 104° (ESE) 882 4.4 -17.7°
Drops below altitude 10° 05:09:51 10° 190° (S) 2,466 6.6 -16.9°
Sets 05:12:13 0° 192° (SSW) 3,401 7.3 -16.5°
